Terminal Aerodrome Forecast
Issued by NWS

Home | Current Version | Previous Version | Text Only | Print | Product List | Glossary On
Versions: 1 2 3 4 5 6 7 8 9 10 11 12 13 14 15 16 17 18 19 20 21 22 23 24 25 26 27 28 29 30 31 32 33 34 35 36 37 38 39 40 41 42 43 44
000
FTAK31 PANC 041749
TAFACD
TAF
PACD 041749Z 0418/0518 14016G24KT 6SM -RA SCT015 BKN025
     FM042300 14022G30KT P6SM -SHRA SCT008 OVC015
     FM050800 12022G30KT P6SM -RA BKN008 OVC015=

USA.gov is the U.S. government's official web portal to all federal, state and local government web resources and services.